Location: ???? ??????? ????
(31.2176°N, 31.6797°E)
Time: 16:35:32
(UTC+00:00)

Okean-O - Pass Details

Date: 29 October 2020
Orbit: 638 x 641 km, 98.2° (Epoch: 30 November)

Event Time Altitude Azimuth Distance (km) Brightness Sun altitude
Rises 16:17:02 0° 157° (SSE) 2,930 5.9 -15.5°
Reaches altitude 10° 16:19:15 10° 153° (SSE) 2,025 5.0 -16.0°
Maximum altitude 16:23:34 57° 75° (ENE) 754 2.6 -16.9°
Drops below altitude 10° 16:27:55 10° 357° (N) 2,036 5.2 -17.8°
Sets 16:30:10 0° 353° (N) 2,948 6.1 -18.3°
